FW6739 Weather Reports


time (UTC)temp
F
wind
direction
speed
knots
gust
knots
rain 1hr
in
rain 24hr
in
rain mn
in
humidity
%
barometer
mb
20260509134555 60 225 4.3 9.6 0.00 0.00 0.00 60 1022.6
20260509134046 60 203 5.2 9.6 0.00 0.00 0.00 60 1022.3
20260509133536 60 270 1.7 5.2 0.00 0.00 0.00 64 1022.2
20260509132006 56 225 1.7 6.1 0.00 0.00 0.00 70 1022.1
20260509131455 56 180 3.5 7.0 0.00 0.00 0.00 71 1021.9
20260509130945 56 225 2.6 9.6 0.00 0.00 0.00 70 1021.9
20260509130435 55 225 3.5 9.6 0.00 0.00 0.00 69 1021.6
20260509125926 55 203 4.3 9.6 0.00 0.00 0.00 69 1021.3
20260509125415 55 225 6.1 9.6 0.00 0.00 0.00 67 1021.3
20260509124905 55 203 2.6 9.6 0.00 0.00 0.00 70 1021.6
20260509124355 56 203 3.5 11.3 0.00 0.00 0.00 70 1021.2
20260509123845 55 225 1.7 11.3 0.00 0.00 0.00 69 1021.2
20260509123335 55 180 5.2 9.6 0.00 0.00 0.00 70 1020.8
20260509122314 55 203 3.5 7.0 0.00 0.00 0.00 73 1021.0
20260509120744 54 158 2.6 3.5 0.00 0.00 0.00 73 1020.7
20260509120234 54 180 1.7 3.5 0.00 0.00 0.00 73 1020.7
20260509115724 54 180 1.7 6.1 0.00 0.00 0.00 73 1020.6
20260509115214 54 135 3.5 6.1 0.00 0.00 0.00 74 1020.6
20260509114153 54 180 3.5 7.0 0.00 0.00 0.00 74 1020.2
20260509113644 54 203 3.5 7.0 0.00 0.00 0.00 74 1019.8
20260509113133 54 158 3.5 6.1 0.00 0.00 0.00 74 1020.0
20260509112623 54 180 3.5 7.0 0.00 0.00 0.00 74 1020.3
20260509112113 54 180 3.5 7.0 0.00 0.00 0.00 74 1020.0
20260509111603 54 180 2.6 7.0 0.00 0.00 0.00 74 1020.0
20260509111053 54 203 3.5 7.8 0.00 0.00 0.00 74 1019.9
20260509110542 54 180 2.6 9.6 0.00 0.00 0.00 73 1020.1
20260509110032 54 158 5.2 9.6 0.00 0.00 0.00 72 1019.9
20260509105012 54 158 5.2 9.6 0.00 0.00 0.00 70 1019.6
20260509104501 54 180 4.3 13.0 0.00 0.00 0.00 71 1019.3
20260509103951 54 203 7.0 13.0 0.00 0.00 0.00 70 1019.3
20260509103442 55 203 5.2 13.0 0.00 0.00 0.00 69 1019.1
20260509102932 55 180 7.0 13.0 0.00 0.00 0.00 67 1019.2
20260509102421 55 203 4.3 12.2 0.00 0.00 0.00 67 1019.1
20260509101912 55 180 3.5 9.6 0.00 0.00 0.00 65 1018.7
20260509101402 56 225 6.1 14.8 0.00 0.00 0.00 63 1018.7
20260509100341 55 203 6.1 9.6 0.00 0.00 0.00 67 1018.5
20260509095831 55 203 4.3 7.0 0.00 0.00 0.00 72 1018.0
20260509095321 56 225 1.7 5.2 0.00 0.00 0.00 71 1017.8
20260509094811 56 203 2.6 5.2 0.00 0.00 0.00 72 1017.7
20260509094301 56 180 1.7 5.2 0.00 0.00 0.00 71 1017.6
20260509093241 56 203 2.6 6.1 0.00 0.00 0.00 72 1017.0
20260509092731 56 203 1.7 5.2 0.00 0.00 0.00 71 1017.2
20260509092220 56 203 2.6 5.2 0.00 0.00 0.00 71 1016.7
20260509091200 56 180 3.5 6.1 0.00 0.00 0.00 70 1016.6
20260509090140 56 203 2.6 7.8 0.00 0.00 0.00 69 1016.3
20260509085630 56 203 4.3 7.8 0.00 0.00 0.00 68 1016.3
20260509085120 56 203 2.6 7.0 0.00 0.00 0.00 67 1016.2
20260509084610 56 203 3.5 7.0 0.00 0.00 0.00 66 1016.2
20260509083549 56 180 6.1 9.6 0.00 0.00 0.00 63 1016.0
20260509083039 56 158 2.6 11.3 0.00 0.00 0.00 62 1015.7
20260509082528 57 225 5.2 13.9 0.00 0.00 0.00 60 1015.7
20260509082019 56 203 5.2 13.9 0.00 0.00 0.00 58 1015.6
20260509081509 57 180 5.2 9.6 0.00 0.00 0.00 58 1015.5
20260509080958 57 180 7.0 12.2 0.00 0.00 0.00 57 1015.6
20260509080448 57 203 5.2 12.2 0.00 0.00 0.00 56 1015.5
20260509075428 57 158 5.2 9.6 0.00 0.00 0.00 57 1015.4
20260509074918 57 203 4.3 11.3 0.00 0.00 0.00 60 1015.4
20260509074408 57 225 3.5 11.3 0.00 0.00 0.00 61 1015.2
20260509073858 56 180 3.5 7.0 0.00 0.00 0.00 62 1015.3
20260509073348 56 203 3.5 6.1 0.00 0.00 0.00 62 1015.1
20260509072837 56 180 2.6 6.1 0.00 0.00 0.00 63 1015.3
20260509072327 55 180 3.5 6.1 0.00 0.00 0.00 64 1015.1
20260509071817 55 203 3.5 5.2 0.00 0.00 0.00 66 1015.0
20260509070757 54 225 1.7 3.5 0.00 0.00 0.00 70 1015.0
20260509070247 54 225 1.7 3.5 0.00 0.00 0.00 70 1015.0
20260509065737 54 225 2.6 3.5 0.00 0.00 0.00 71 1014.8
20260509065227 54 225 1.7 3.5 0.00 0.00 0.00 73 1015.0
20260509064717 54 225 1.7 3.5 0.00 0.00 0.00 74 1015.1
20260509064206 54 248 0.9 1.7 0.00 0.00 0.00 75 1014.8
20260509063656 54 248 0.0 0.0 0.00 0.00 0.00 75 1014.9
20260509063146 55 248 0.0 0.0 0.00 0.00 0.00 74 1015.0
20260509062637 55 248 0.0 0.0 0.00 0.00 0.00 71 1015.1
20260509062127 55 248 0.0 0.0 0.00 0.00 0.00 70 1014.9
20260509061105 56 248 0.0 1.7 0.00 0.00 0.00 67 1014.9
20260509060556 55 248 0.0 1.7 0.00 0.00 0.00 65 1014.6
20260509060046 55 248 0.0 1.7 0.00 0.00 0.00 69 1014.8
20260509055535 54 248 0.9 3.5 0.00 0.00 0.00 72 1014.8
20260509055025 53 248 1.7 3.5 0.00 0.00 0.00 75 1014.6
20260509054515 54 248 0.0 1.7 0.00 0.00 0.00 76 1014.7
20260509054005 54 248 0.9 1.7 0.00 0.00 0.00 76 1014.7
20260509053455 54 248 0.0 1.7 0.00 0.00 0.00 76 1014.6
20260509052945 54 248 0.0 1.7 0.00 0.00 0.00 77 1014.9
20260509052435 54 248 0.0 1.7 0.00 0.00 0.00 76 1014.8
20260509051924 54 248 0.0 1.7 0.00 0.00 0.00 77 1014.8
20260509050904 53 248 0.0 0.0 0.00 0.00 0.00 78 1014.9
20260509050351 54 248 1.7 0.0 0.00 0.00 0.00 79 1014.8
20260509050157 53 248 1.7 0.0 0.00 0.00 0.00 79 1014.8
20260509045525 54 248 1.7 1.7 0.00 0.01 0.00 78 1014.8
20260509045015 54 248 0.0 0.0 0.00 0.01 0.00 76 1014.7
20260509043955 55 248 0.0 1.7 0.00 0.01 0.00 75 1014.7
20260509043444 54 248 0.0 1.7 0.00 0.01 0.00 76 1014.7
20260509041914 53 248 0.0 0.0 0.00 0.01 0.00 75 1015.1
20260509041404 53 248 0.0 0.0 0.00 0.01 0.00 75 1015.1
20260509040854 54 248 0.0 0.0 0.00 0.01 0.00 74 1015.0
20260509040343 54 248 0.0 0.0 0.00 0.01 0.00 73 1014.9
20260509035833 55 248 0.0 0.0 0.00 0.01 0.00 72 1014.7
20260509035324 55 248 0.0 1.7 0.00 0.01 0.00 72 1014.7
20260509034814 55 248 0.0 1.7 0.00 0.01 0.00 72 1014.8
20260509034304 55 248 0.0 0.0 0.00 0.01 0.00 72 1014.7
20260509033754 56 248 0.0 0.0 0.00 0.01 0.00 71 1015.0
20260509033243 56 248 0.0 0.0 0.00 0.01 0.00 69 1015.0
20260509032732 56 248 0.0 0.0 0.00 0.01 0.00 69 1015.3
20260509032223 57 248 0.0 0.0 0.00 0.01 0.00 68 1015.1
20260509031714 56 248 0.0 0.0 0.00 0.01 0.00 69 1015.0
20260509031203 56 248 0.0 0.0 0.00 0.01 0.00 70 1015.1
20260509025632 55 248 0.0 0.0 0.00 0.01 0.01 71 1014.7
20260509024102 57 248 0.0 0.0 0.00 0.01 0.01 69 1014.4
20260509023551 57 248 0.0 0.0 0.00 0.01 0.01 68 1014.2
20260509023042 57 248 0.0 0.0 0.00 0.01 0.01 67 1014.3
20260509022021 57 248 0.0 0.0 0.00 0.01 0.01 66 1014.3
20260509021511 57 248 0.0 0.0 0.00 0.01 0.01 66 1014.3
20260509021000 57 248 0.0 1.7 0.00 0.01 0.01 66 1014.1
20260509015941 57 248 0.0 1.7 0.00 0.01 0.01 63 1014.0
20260509015431 58 248 0.9 3.5 0.00 0.01 0.01 63 1014.4
20260509014921 57 248 0.9 3.5 0.00 0.01 0.01 63 1014.2
20260509014411 57 248 0.0 1.7 0.00 0.01 0.01 63 1014.2
20260509013901 58 248 0.0 3.5 0.00 0.01 0.01 63 1014.0
20260509013351 58 248 0.9 3.5 0.00 0.01 0.01 64 1014.3
20260509012841 58 248 0.9 1.7 0.00 0.01 0.01 63 1014.2
20260509012330 58 248 0.9 1.7 0.00 0.01 0.01 64 1013.8
20260509011819 58 248 0.0 0.0 0.00 0.01 0.01 65 1014.0
20260509011310 58 248 0.0 1.7 0.00 0.01 0.01 66 1013.8
20260509010249 58 248 0.0 0.0 0.00 0.01 0.01 66 1013.4
20260509005740 58 248 0.0 1.7 0.00 0.01 0.01 66 1013.4
20260509005230 58 248 0.0 1.7 0.00 0.01 0.01 66 1013.5
20260509004720 58 248 0.0 1.7 0.00 0.01 0.01 66 1013.2
20260509004209 57 248 0.0 0.0 0.00 0.01 0.01 66 1013.2
20260509003659 58 248 0.0 0.0 0.00 0.01 0.01 65 1013.1
20260509003149 57 248 0.0 0.0 0.00 0.01 0.01 65 1012.9
20260509002129 58 248 0.0 0.0 0.00 0.01 0.01 63 1012.6
20260509000603 58 248 0.0 1.7 0.00 0.01 0.01 63 1012.7
20260509000049 58 248 0.0 1.7 0.00 0.01 0.01 60 1012.6
20260508235538 58 248 0.0 0.0 0.00 0.01 0.01 61 1012.5
20260508235028 58 248 0.0 0.0 0.00 0.01 0.01 61 1012.7
20260508234008 58 248 0.0 0.0 0.00 0.01 0.01 61 1012.4
20260508233459 58 248 0.0 0.0 0.00 0.01 0.01 61 1012.4
20260508232948 58 248 0.0 0.0 0.00 0.01 0.01 62 1012.3
20260508231928 58 248 0.0 0.0 0.00 0.01 0.01 61 1012.4
20260508231417 58 248 0.0 0.0 0.00 0.01 0.01 61 1012.3
20260508230357 58 248 0.0 0.0 0.00 0.01 0.01 61 1012.2
20260508225847 58 248 0.0 0.0 0.00 0.01 0.01 62 1012.3
20260508225336 58 248 0.0 0.0 0.00 0.01 0.01 63 1012.0
20260508224316 58 248 0.0 0.0 0.00 0.01 0.01 60 1011.8
20260508223806 59 248 0.0 0.0 0.00 0.01 0.01 60 1011.6
20260508222747 60 248 0.0 0.0 0.00 0.01 0.01 58 1011.5
20260508222236 60 248 0.0 0.0 0.00 0.01 0.01 57 1011.5
20260508221215 60 248 0.0 0.0 0.00 0.01 0.01 56 1011.4
20260508220706 60 248 0.0 0.0 0.00 0.01 0.01 55 1011.4
20260508220156 60 248 0.0 1.7 0.00 0.01 0.01 54 1011.1
20260508215645 60 248 0.0 1.7 0.00 0.01 0.01 53 1011.2
20260508215135 61 248 0.9 3.5 0.00 0.01 0.01 52 1011.0
20260508214115 61 248 1.7 3.5 0.00 0.01 0.01 52 1011.4
20260508213605 61 248 0.9 3.5 0.00 0.01 0.01 51 1011.4
20260508213055 62 248 1.7 3.5 0.00 0.01 0.01 50 1011.5
20260508212545 62 270 1.7 3.5 0.00 0.01 0.01 49 1011.8
20260508212035 62 248 1.7 3.5 0.00 0.01 0.01 50 1011.5
20260508211525 62 248 2.6 3.5 0.00 0.01 0.01 49 1011.6
20260508210504 64 248 0.9 5.2 0.00 0.01 0.01 46 1011.5
20260508205955 64 293 1.7 5.2 0.00 0.01 0.01 45 1011.3
20260508205444 64 248 1.7 6.1 0.00 0.01 0.01 45 1011.3
20260508204934 65 248 1.7 6.1 0.00 0.01 0.01 45 1011.4
20260508204424 65 270 2.6 5.2 0.00 0.01 0.01 45 1011.4
20260508203403 66 248 1.7 6.1 0.00 0.01 0.01 43 1011.3
20260508202854 66 270 1.7 6.1 0.00 0.01 0.01 43 1011.2
20260508202343 67 270 1.7 6.1 0.00 0.01 0.01 42 1011.3
20260508201833 66 248 1.7 6.1 0.00 0.01 0.01 42 1011.4
20260508201323 67 248 1.7 3.5 0.00 0.01 0.01 40 1011.4
20260508200813 67 225 0.9 3.5 0.00 0.01 0.01 41 1011.3
20260508200303 66 225 1.7 3.5 0.00 0.01 0.01 39 1011.4
20260508195243 67 248 0.9 5.2 0.00 0.01 0.01 39 1011.0
20260508194222 67 203 1.7 7.0 0.00 0.01 0.01 40 1011.4
20260508193712 67 225 1.7 7.0 0.00 0.01 0.01 38 1011.3
20260508193202 67 180 3.5 7.0 0.00 0.01 0.01 38 1011.5
20260508192652 68 248 1.7 6.1 0.00 0.01 0.01 38 1011.5
20260508191632 67 225 0.9 5.2 0.00 0.01 0.01 40 1011.8
20260508190612 68 225 2.6 6.1 0.00 0.01 0.01 37 1011.8
20260508185042 68 225 1.7 7.0 0.00 0.01 0.01 38 1011.6
20260508184532 67 225 3.5 7.0 0.00 0.01 0.01 38 1011.8
20260508184022 68 225 1.7 7.8 0.00 0.01 0.01 39 1011.8
20260508183511 67 248 2.6 7.8 0.00 0.01 0.01 38 1012.0
20260508183001 68 225 1.7 6.1 0.00 0.01 0.01 39 1011.8
20260508182452 68 180 1.7 7.0 0.00 0.01 0.01 39 1011.7
20260508181940 69 248 0.9 7.0 0.00 0.01 0.01 40 1011.9
20260508181431 68 293 2.6 7.0 0.00 0.01 0.01 39 1011.9
20260508180921 67 225 1.7 7.0 0.00 0.01 0.01 40 1011.5
20260508180410 67 270 3.5 7.0 0.00 0.01 0.01 39 1011.8
20260508175900 67 248 2.6 7.0 0.00 0.01 0.01 39 1011.7
20260508174840 67 180 2.6 9.6 0.00 0.01 0.01 40 1012.0
20260508174330 67 203 1.7 7.0 0.00 0.01 0.01 39 1012.0
20260508173310 67 203 3.5 9.6 0.00 0.01 0.01 39 1012.3
20260508172759 67 248 3.5 11.3 0.00 0.01 0.01 38 1012.4
20260508172250 66 180 7.0 11.3 0.00 0.01 0.01 39 1012.5
20260508171740 67 225 3.5 11.3 0.00 0.01 0.01 39 1012.6
20260508171229 67 225 3.5 9.6 0.00 0.01 0.01 38 1012.8
20260508170209 67 270 3.5 9.6 0.00 0.01 0.01 36 1013.1
20260508165659 67 225 4.3 9.6 0.00 0.01 0.01 37 1013.0
20260508164639 66 225 3.5 7.8 0.00 0.01 0.01 34 1013.0
20260508163619 66 248 6.1 11.3 0.00 0.01 0.01 33 1013.4
20260508162559 65 248 3.5 11.3 0.00 0.01 0.01 34 1013.3
20260508162048 66 225 4.3 13.0 0.00 0.01 0.01 37 1013.3
20260508161029 66 270 2.6 7.8 0.00 0.01 0.01 37 1013.6
20260508160519 67 248 3.5 11.3 0.00 0.01 0.01 40 1013.7
20260508155457 66 203 3.5 11.3 0.00 0.01 0.01 42 1014.0
20260508154948 65 203 4.3 9.6 0.00 0.01 0.01 39 1014.0
20260508154438 65 225 3.5 9.6 0.00 0.01 0.01 41 1014.0
20260508153927 66 225 3.5 7.8 0.00 0.01 0.01 43 1014.2
20260508153417 65 225 3.5 9.6 0.00 0.01 0.01 42 1014.3
20260508152356 65 203 4.3 7.0 0.00 0.01 0.01 41 1014.2
20260508150827 65 225 3.5 9.6 0.00 0.01 0.01 41 1014.3
20260508150317 64 180 4.3 9.6 0.00 0.01 0.01 42 1014.7
20260508145806 65 248 3.5 9.6 0.00 0.01 0.01 42 1014.5
20260508145256 65 248 3.5 9.6 0.00 0.01 0.01 43 1014.6
20260508144746 64 248 4.3 9.6 0.00 0.01 0.01 46 1014.6
20260508144235 64 248 1.7 9.6 0.00 0.01 0.01 46 1014.8
20260508143727 64 270 3.5 9.6 0.00 0.01 0.01 51 1014.6
20260508143215 63 248 3.5 7.8 0.00 0.01 0.01 47 1014.6
20260508142706 64 248 3.5 7.8 0.00 0.01 0.01 53 1014.6
20260508142157 64 203 1.7 6.1 0.00 0.01 0.01 56 1014.8
20260508141646 63 203 2.6 6.1 0.00 0.01 0.01 54 1014.9
20260508141136 63 203 3.5 6.1 0.00 0.01 0.01 57 1014.8
20260508140625 63 248 1.7 6.1 0.00 0.01 0.01 58 1014.6
20260508140116 63 225 2.6 6.1 0.00 0.01 0.01 57 1014.8